Presque Isle, ME

1:11 PM EDT on August 18, 2017 (GMT -0400)
Northern Maine Regional At Presque Isle

Weather History for KPQI - November, 2011

Change the Weather History Date:

Sunday, November 13, 2011

  Actual Average Record
Temperature  
Mean Temperature 43 °F -  
Max Temperature 53 °F 39 °F 60 °F (1982)
Min Temperature 33 °F 25 °F 0 °F (1933)
Degree Days  
Heating Degree Days 22    
Moisture  
Dew Point 31 °F    
Average Humidity 63    
Maximum Humidity 81    
Minimum Humidity 44    
Precipitation  
Precipitation 0.00 in - - ()
Sea Level Pressure  
Sea Level Pressure 29.95 in    
Wind  
Wind Speed 8 mph (South)    
Max Wind Speed 17 mph    
Max Gust Speed 24 mph    
Visibility 10 miles    
Events      
Averages and records for this station are not official NWS values.
T = Trace of Precipitation, MM = Missing Value Source: NWS Daily Summary

Daily Weather History Graph

Daily Weather History Graph

Search for Another Location

Airport or City:

Trip Planner

Search our weather history database for the weather conditions in past years. The results will help you decide how hot, cold, wet, or windy it might be!

Date:

Astronomy

Nov. 13, 2011 Rise Set
Actual Time 6:31 AM EST 4:00 PM EST
Civil Twilight 5:58 AM EST 4:33 PM EST
Nautical Twilight 5:21 AM EST 5:10 PM EST
Astronomical Twilight 4:46 AM EST 5:45 PM EST
Moon 5:59 PM EST (11/13) 9:08 AM EST (11/13)
Length of Visible Light 10h 35m
Length of Day
9h 29m
Waning Gibbous, 93% of the Moon is Illuminated
Nov 13
Waning Gibbous
Nov 18
Last Quarter
Nov 25
New
Dec 2
First Quarter
Dec 10
Full

Hourly Weather History & Observations

Time (EST) Temp. Windchill Dew Point Humidity Pressure Visibility Wind Dir Wind Speed Gust Speed Precip Events Conditions
12:15 AM 39.2 °F 32.5 °F 28.4 °F 65% 29.89 in 10.0 mi SW 10.4 mph - N/A   Overcast
12:35 AM 41.0 °F 35.2 °F 30.2 °F 65% 29.90 in 10.0 mi SSW 9.2 mph - N/A   Overcast
12:55 AM 39.2 °F 34.2 °F 28.4 °F 65% 29.90 in 10.0 mi South 6.9 mph - N/A   Overcast
1:15 AM 39.2 °F 34.2 °F 28.4 °F 65% 29.90 in 10.0 mi SSW 6.9 mph - N/A   Mostly Cloudy
1:35 AM 37.4 °F 33.8 °F 28.4 °F 70% 29.91 in 10.0 mi SSW 4.6 mph - N/A   Partly Cloudy
1:55 AM 37.4 °F 31.4 °F 28.4 °F 70% 29.92 in 10.0 mi SSW 8.1 mph - N/A   Clear
2:15 AM 35.6 °F 30.7 °F 26.6 °F 70% 29.92 in 10.0 mi SSW 5.8 mph - N/A   Clear
2:35 AM 37.4 °F 32.8 °F 28.4 °F 70% 29.93 in 10.0 mi SSW 5.8 mph - N/A   Scattered Clouds
2:55 AM 35.6 °F 31.7 °F 28.4 °F 75% 29.94 in 10.0 mi SSW 4.6 mph - N/A   Mostly Cloudy
3:15 AM 35.6 °F 32.8 °F 26.6 °F 70% 29.95 in 10.0 mi South 3.5 mph - N/A   Partly Cloudy
3:35 AM 35.6 °F 32.8 °F 28.4 °F 75% 29.96 in 10.0 mi South 3.5 mph - N/A   Clear
3:55 AM 35.6 °F 31.7 °F 26.6 °F 70% 29.96 in 10.0 mi South 4.6 mph - N/A   Partly Cloudy
4:15 AM 35.6 °F 30.7 °F 28.4 °F 75% 29.96 in 10.0 mi SSW 5.8 mph - N/A   Partly Cloudy
4:35 AM 35.6 °F 32.8 °F 26.6 °F 70% 29.97 in 10.0 mi SSW 3.5 mph - N/A   Clear
4:55 AM 35.6 °F 31.7 °F 28.4 °F 75% 29.98 in 10.0 mi SSW 4.6 mph - N/A   Clear
5:15 AM 35.6 °F 31.7 °F 28.4 °F 75% 29.99 in 10.0 mi South 4.6 mph - N/A   Clear
5:35 AM 33.8 °F 28.6 °F 26.6 °F 75% 30.00 in 10.0 mi South 5.8 mph - N/A   Clear
5:55 AM 35.6 °F 31.7 °F 28.4 °F 75% 30.01 in 10.0 mi SSW 4.6 mph - N/A   Mostly Cloudy
6:15 AM 33.8 °F - 28.4 °F 81% 30.01 in 10.0 mi Calm Calm - N/A   Overcast
6:35 AM 33.8 °F 30.8 °F 26.6 °F 75% 30.01 in 10.0 mi North 3.5 mph - N/A   Overcast
6:55 AM 33.8 °F - 28.4 °F 81% 30.01 in 10.0 mi Calm Calm - N/A   Overcast
7:15 AM 33.8 °F - 28.4 °F 81% 30.01 in 10.0 mi Calm Calm - N/A   Overcast
7:55 AM 35.6 °F - 30.2 °F 81% 30.02 in 10.0 mi Calm Calm - N/A   Overcast
8:15 AM 39.2 °F 35.9 °F 32.0 °F 75% 30.03 in 10.0 mi South 4.6 mph - N/A   Partly Cloudy
8:35 AM 39.2 °F 34.2 °F 30.2 °F 70% 30.03 in 10.0 mi SE 6.9 mph - N/A   Clear
9:15 AM 42.8 °F 39.3 °F 32.0 °F 66% 30.04 in 10.0 mi SSE 5.8 mph - N/A   Clear
9:35 AM 42.8 °F 38.6 °F 30.2 °F 61% 30.04 in 10.0 mi SSE 6.9 mph - N/A   Clear
9:55 AM 44.6 °F 42.2 °F 33.8 °F 66% 30.04 in 10.0 mi SE 4.6 mph - N/A   Clear
10:15 AM 46.4 °F 43.5 °F 33.8 °F 62% 30.03 in 10.0 mi ESE 5.8 mph - N/A   Clear
10:35 AM 46.4 °F 41.5 °F 33.8 °F 62% 30.02 in 10.0 mi SE 10.4 mph - N/A   Clear
10:55 AM 48.2 °F - 35.6 °F 62% 30.01 in 10.0 mi SE 9.2 mph - N/A   Clear
11:35 AM 53.6 °F - 33.8 °F 47% 29.99 in 10.0 mi South 17.3 mph 23.0 mph N/A   Clear
11:55 AM 53.6 °F - 32.0 °F 44% 29.98 in 10.0 mi South 13.8 mph - N/A   Clear
12:15 PM 53.6 °F - 32.0 °F 44% 29.98 in 10.0 mi South 15.0 mph - N/A   Clear
12:35 PM 53.6 °F - 33.8 °F 47% 29.97 in 10.0 mi South 15.0 mph 24.2 mph N/A   Clear
12:55 PM 53.6 °F - 32.0 °F 44% 29.95 in 10.0 mi South 17.3 mph 23.0 mph N/A   Clear
1:15 PM 53.6 °F - 32.0 °F 44% 29.95 in 10.0 mi South 15.0 mph 23.0 mph N/A   Clear
1:35 PM 53.6 °F - 33.8 °F 47% 29.94 in 10.0 mi South 11.5 mph - N/A   Clear
1:56 PM 53.6 °F - 33.8 °F 47% 29.94 in 10.0 mi South 13.8 mph - N/A   Clear
2:15 PM 53.6 °F - 33.8 °F 47% 29.93 in 10.0 mi South 12.7 mph - N/A   Clear
2:35 PM 53.6 °F - 33.8 °F 47% 29.93 in 10.0 mi South 11.5 mph 16.1 mph N/A   Clear
2:55 PM 51.8 °F - 33.8 °F 50% 29.92 in 10.0 mi South 12.7 mph - N/A   Clear
3:15 PM 51.8 °F - 33.8 °F 50% 29.91 in 10.0 mi SSE 9.2 mph - N/A   Clear
3:35 PM 51.8 °F - 33.8 °F 50% 29.91 in 10.0 mi South 11.5 mph - N/A   Clear
3:55 PM 50.0 °F - 33.8 °F 54% 29.90 in 10.0 mi SSE 11.5 mph - N/A   Clear
4:15 PM 50.0 °F - 33.8 °F 54% 29.90 in 10.0 mi SSE 6.9 mph - N/A   Clear
4:35 PM 48.2 °F - 33.8 °F 58% 29.89 in 10.0 mi SSE 10.4 mph - N/A   Clear
4:55 PM 48.2 °F - 33.8 °F 58% 29.89 in 10.0 mi SSE 10.4 mph - N/A   Clear
5:15 PM 48.2 °F - 33.8 °F 58% 29.90 in 10.0 mi SSE 6.9 mph - N/A   Clear
5:35 PM 48.2 °F - 33.8 °F 58% 29.89 in 10.0 mi SE 5.8 mph - N/A   Clear
5:55 PM 46.4 °F 42.4 °F 35.6 °F 66% 29.88 in 10.0 mi SE 8.1 mph - N/A   Clear
6:15 PM 46.4 °F 42.4 °F 35.6 °F 66% 29.87 in 10.0 mi SE 8.1 mph - N/A   Clear
6:35 PM 46.4 °F 41.9 °F 35.6 °F 66% 29.87 in 10.0 mi SE 9.2 mph - N/A   Clear
6:55 PM 46.4 °F 41.1 °F 35.6 °F 66% 29.86 in 10.0 mi SE 11.5 mph - N/A   Scattered Clouds
7:15 PM 46.4 °F 41.1 °F 35.6 °F 66% 29.84 in 10.0 mi SE 11.5 mph 17.3 mph N/A   Scattered Clouds
7:35 PM 46.4 °F 41.1 °F 35.6 °F 66% 29.84 in 10.0 mi SSE 11.5 mph - N/A   Scattered Clouds
7:55 PM 44.6 °F 39.2 °F 35.6 °F 71% 29.83 in 10.0 mi SSE 10.4 mph - N/A   Scattered Clouds
8:15 PM 44.6 °F 40.2 °F 35.6 °F 71% 29.83 in 10.0 mi SE 8.1 mph - N/A   Partly Cloudy
8:35 PM 44.6 °F 40.2 °F 35.6 °F 71% 29.84 in 10.0 mi SSE 8.1 mph - N/A   Partly Cloudy
9:15 PM 44.6 °F 39.7 °F 37.4 °F 76% 29.82 in 10.0 mi SE 9.2 mph - N/A   Partly Cloudy
9:35 PM 44.6 °F 39.7 °F 37.4 °F 76% 29.82 in 10.0 mi SSE 9.2 mph - N/A   Scattered Clouds
9:55 PM 46.4 °F 42.9 °F 37.4 °F 71% 29.81 in 10.0 mi SSE 6.9 mph - N/A   Overcast
10:15 PM 46.4 °F 42.4 °F 39.2 °F 76% 29.80 in 10.0 mi SSE 8.1 mph - N/A   Mostly Cloudy
10:35 PM 46.4 °F 42.4 °F 39.2 °F 76% 29.79 in 10.0 mi SSE 8.1 mph - N/A   Partly Cloudy
10:55 PM 46.4 °F 42.9 °F 39.2 °F 76% 29.78 in 10.0 mi SE 6.9 mph - N/A   Clear
11:15 PM 46.4 °F 42.4 °F 39.2 °F 76% 29.78 in 10.0 mi SE 8.1 mph - N/A   Clear
11:35 PM 44.6 °F 40.7 °F 39.2 °F 81% 29.78 in 10.0 mi SSE 6.9 mph - N/A   Partly Cloudy
11:55 PM 44.6 °F 40.7 °F 39.2 °F 81% 29.77 in 10.0 mi SSE 6.9 mph - N/A   Mostly Cloudy